Location: Peebles
(55.6412°N, 3.1714°W)
Time: 12:07:21
(UTC+01:00)

KEPLER-1 (CASE) - Pass Details

Date: 02 July 2022
Orbit: 435 x 454 km, 97.4° (Epoch: 17 August)

Event Time Altitude Azimuth Distance (km) Brightness Sun altitude
Exits shadow 23:54:26 12° 185° (S) 1,463 ? -9.4°
Maximum altitude 23:57:26 48° 260° (W) 591 ? -9.6°
Drops below altitude 10° 00:00:45 10° 336° (NNW) 1,588 ? -9.7°
Sets 00:02:51 0° 342° (NNW) 2,471 ? -9.8°
